This is the latest recevied weather packets stored in our database for station/object EB2GLU-13. If no packets are shown the sender has not sent any weather packets the latest 10 day(s).
| Time | Temp. | Humidity | Pressure | Rain* | Wind** | Luminosity | Snow |
|---|---|---|---|---|---|---|---|
| 1777902019 | 13.33° C | 89% | 1013.4 hPa | 0.51 mm | - | - | - |
| 1777901269 | 13.33° C | 94% | 1013.5 hPa | 1.27 mm | - | - | - |
| 1777900519 | 13.33° C | 93% | 1013.7 hPa | 2.54 mm | - | - | - |
| 1777899769 | 13.33° C | 94% | 1013.7 hPa | 3.05 mm | - | - | - |
| 1777899019 | 12.78° C | 94% | 1013.9 hPa | 3.05 mm | - | - | - |
| 1777898269 | 12.78° C | 94% | 1014.1 hPa | 3.81 mm | - | - | - |
| 1777897519 | 12.22° C | 93% | 1014.1 hPa | 3.56 mm | - | - | - |
| 1777896769 | 12.78° C | 93% | 1014 hPa | 2.29 mm | - | - | - |
| 1777896019 | 12.78° C | 93% | 1013.9 hPa | 2.03 mm | - | - | - |
| 1777895268 | 12.22° C | 92% | 1014 hPa | 1.27 mm | - | - | - |
| 1777894518 | 12.78° C | 91% | 1013.9 hPa | 0.76 mm | - | - | - |
| 1777893768 | 12.78° C | 92% | 1013.6 hPa | 0.51 mm | - | - | - |
| 1777893018 | 12.78° C | 92% | 1013.6 hPa | 0 mm | - | - | - |
| 1777892269 | 13.33° C | 90% | 1013.7 hPa | 0.25 mm | - | - | - |
| 1777890768 | 13.33° C | 88% | 1013.5 hPa | 0.76 mm | - | - | - |
| 1777890018 | 13.89° C | 90% | 1013.4 hPa | 1.02 mm | - | - | - |
| 1777889268 | 13.33° C | 89% | 1013.4 hPa | 0.76 mm | - | - | - |
| 1777888518 | 13.33° C | 89% | 1013.4 hPa | 2.03 mm | - | - | - |
| 1777887768 | 13.33° C | 88% | 1013.4 hPa | 2.54 mm | - | - | - |
| 1777887018 | 13.89° C | 90% | 1013.4 hPa | 2.29 mm | - | - | - |
| 1777886268 | 13.33° C | 91% | 1013.5 hPa | 2.03 mm | - | - | - |
| 1777885518 | 13.33° C | 91% | 1013.2 hPa | 1.78 mm | - | - | - |
| 1777884768 | 13.33° C | 89% | 1013.3 hPa | 0.25 mm | - | - | - |
| 1777884018 | 13.33° C | 89% | 1013.3 hPa | 0.25 mm | - | - | - |
| 1777883268 | 13.33° C | 88% | 1012.9 hPa | 0.51 mm | - | - | - |
* Rain latest hour (hover to see other rain measurements)
** Current wind speed in m/s (hover to see current wind gust speed)